Regional Weather Roundup
Issued by NWS Grand Forks, ND

Home | Current Version | Previous Version | Graphics & Text | Print | Product List | Glossary On
Versions: 1 2 3 4 5 6 7 8 9 10 11 12 13 14 15 16 17 18 19 20 21 22 23 24 25 26 27 28 29 30 31 32 33 34 35 36 37 38 39 40 41 42 43 44 45 46 47 48 49 50
000
ASUS43 KFGF 221110
RWRFGF
PRAIRIE TO PINES  WEATHER ROUNDUP
NATIONAL WEATHER SERVICE EASTERN NORTH DAKOTA/GRAND FORKS ND
500 AM CST WED FEB 22 2017

 **SATELLITE DATA USED TO AUGMENT SKY COVER AT AUTOMATED STATIONS**
 *****  WEATHER ACROSS EASTERN NORTH DAKOTA  *****

CITY           SKY/WX    TMP DP  RH WIND       PRES   REMARKS
GRAND FORKS    FRZ RAIN  33  29  85 NW9       29.69R FOG
GRAND FRKS AFB DRIZZLE   32  32  99 N8        29.70R FOG     WCI  25
DEVILS LAKE    CLOUDY    32  32 100 N7        29.70R FOG
FARGO          FOG       33  33 100 N9        29.66R VSB 1/4
WAHPETON ARPT  FAIR      32  32 100 NW10      29.64R WCI  24
$$

 ***** WEATHER ACROSS CENTRAL AND WESTERN NORTH DAKOTA  *****

CITY           SKY/WX    TMP DP  RH WIND       PRES   REMARKS
BISMARCK       MOCLDY    34  33  96 W6        29.70R
MINOT          LGT SNOW  33  30  88 N13       29.74R FOG     WCI  24
JAMESTOWN      MOCLDY    34  32  92 N6        29.65R
MINOT AFB      FLURRIES  31  29  89 N14       29.73R WCI  21
GARRISON         N/A     33  31  92 N7        29.70S
WILLISTON      LGT SNOW  33  31  92 N10       29.77R FOG     WCI  25
DICKINSON      LGT RAIN  33  32  96 NE10      29.66S FOG     WCI  25
HETTINGER      CLOUDY    39  36  89 NW17      29.66S
$$

 *****  OTHER AIRPORT OBSERVATIONS IN OUR AREA  *****

CITY           SKY/WX    TMP DP  RH WIND       PRES   REMARKS
WALHALLA       NOT AVBL
GRAFTON AIRPOR MIX PCPN  32  32 100 N10       29.72R WCI  24
VALLEY CITY AR CLOUDY    32  32 100 N9        29.66F WCI  24
CANDO          NOT AVBL
CAVALIER APRT  LGT SNOW  32  32 100 N10       29.73R WCI  24
GWINNER        FAIR      36  36 100 N3        29.63S
SHEYENNE NWR     N/A     34  34 100 N6        29.95S
ROLLA          LGT RAIN  32  32 100 N14       29.73R WCI  22
 ***** THE ABOVE OBSERVATIONS ARE NON NWS ARE NOT QUALITY
       CONTROLLED AND MAY MIS-REPORT RAIN FOR SNOW...
$$

  *****  WEATHER ACROSS NORTHERN MINNESOTA  *****

CITY           SKY/WX    TMP DP  RH WIND       PRES   REMARKS
FLAG ISLAND    CLOUDY    34  30  86 CALM      29.70R
WARROAD        LGT SNOW  34  28  80 NW3       29.71S
ROSEAU         LGT SNOW  32  28  86 CALM      29.71S
HALLOCK        CLOUDY    34  34 100 N9        29.70S
THF RVR FALLS  LGT RAIN  33  32  96 NE7       29.66F
BAUDETTE       LGT SNOW  32  30  92 N3        29.68F FOG
WASKISH        CLOUDY    34  32  93 NE3       29.66S
CROOKSTON      CLOUDY    32  32 100 NE3       29.68S FOG
GREENBUSH NDAW   N/A     32  32 100 N7          N/A
$$
  *****  WEATHER ACROSS CENTRAL AND WEST MINNESOTA  *****

CITY           SKY/WX    TMP DP  RH WIND       PRES   REMARKS
FOSSTON        FOG       32  30  93 N3        29.66R VSB 3/4
BEMIDJI        CLOUDY    34  34 100 CALM      29.64S FOG
PARK RAPIDS    FAIR      36  32  85 N6        29.63R
ELBOW LAKE     FAIR      38  35  89 NE5       29.62R
WADENA         FAIR      32  32 100 CALM      29.61F FOG
DETROIT LAKES  FAIR      34  32  93 N3        29.64S FOG
MOORHEAD       FOG       34  32  93 N8        29.66S VSB 1/2
FERGUS FALLS   FAIR      37  36  93 NE3       29.64F
MORRIS MN      FAIR      36  36 100 N5        29.61R
STAPLES        FAIR      34  34 100 CALM      29.61F FOG
$$
  *****  WEATHER ELSEWHERE ACROSS MINNESOTA  *****

CITY           SKY/WX    TMP DP  RH WIND       PRES   REMARKS
DULUTH         CLOUDY    36  35  96 N3        29.63R
INTRNTL FALLS  CLOUDY    33  30  88 N5        29.67R
ELY            FAIR      32  32 100 CALM      29.62F
CLOQUET        MOCLDY    36  34  93 NW6       29.63R FOG
WHEATON        FAIR      36  34  93 CALM      29.64R
BRAINERD       LGT RAIN  33  33 100 CALM      29.63R
HIBBING        MOCLDY    32  32 100 NW3       29.63R
ALEXANDRIA     FAIR      37  36  96 NE6       29.60S
SAINT CLOUD    FAIR      35  35 100 N3        29.60F FOG
MINNEAPOLIS    FAIR      41  38  89 SE10      29.57F
$$

  *****  WEATHER ACROSS SOUTH DAKOTA  *****

CITY           SKY/WX    TMP DP  RH WIND       PRES   REMARKS
SIOUX FALLS    FAIR      35  33  92 E5        29.60F
BROOKINGS      FAIR      39  36  89 CALM      29.60R
WATERTOWN      FAIR      38  37  97 S7        29.60R
HURON          MOCLDY    38  37  97 W10       29.63R
SISSETON         N/A     34  34 100 N8        29.60S
ABERDEEN       FAIR      36  32  85 N7        29.60S
MITCHELL       FAIR      43  36  76 W12       29.63R
PIERRE         FAIR      43  37  79 VRB7      29.61F
MOBRIDGE       FAIR      36  32  85 NW5       29.63R
RAPID CITY     FAIR      46  34  62 SW13      29.66F
$$

  *****  SOME WEATHER IN NEARBY STATES *****

CITY           SKY/WX    TMP DP  RH WIND       PRES   REMARKS
GLASGOW MT     LGT SNOW  31  30  96 NW7       29.80R FOG     WCI  24
GREAT FALLS MT CLOUDY    31  30  96 SW5       29.82S
CHEYENNE WY    FAIR      34  24  67 NW15G23   29.91R WCI  24
SCOTTSBLUFF NE FAIR      41  31  67 W15       29.84F
OMAHA NE       FAIR      50  35  56 S13       29.69F
DES MOINES IA  FAIR      48  33  56 S10       29.72F
DAVENPORT IA   FOG       52  51  97 S12       29.79S VSB 1/4
CHICAGO IL     FOG       56  54  93 SW10      29.82R VSB 3/4
EAU CLAIRE WI  FAIR      35  34  96 SW8       29.68R
LA CROSSE WI   FAIR      46  37  71 S6        29.67F
$$

  *****  SOME NATIONAL WEATHER *****

CITY           SKY/WX    TMP DP  RH WIND       PRES   REMARKS
LA GUARDIA NY  CLOUDY    45  35  68 S6        30.06R
RALEIGH NC     MOCLDY    52  48  86 CALM      30.04R
ATLANTA GA     LGT RAIN  61  60  97 E7        29.88S FOG
NEW ORLEANS LA FAIR      57  56  96 NW3       29.82S
OKLAHOMA CITY  FAIR      42  37  82 S6        29.88S
ALBUQUERQUE NM FAIR      45  33  63 SE6       30.15S
SALT LAKE CITY CLOUDY    36  34  92 S5        30.04F
LOS ANGELES CA FAIR      54  53  97 W8        30.15F
BOISE ID       FAIR      33  27  78 CALM      30.04F
SEATTLE WA     CLOUDY    39  34  82 CALM      30.17S
$$

*** WEATHER ACROSS MANITOBA...SASKATCHEWAN AND ONTARIO ***
                ***ONTARIO***

CITY           SKY/WX    TMP DP  RH WIND       PRES   REMARKS
GERALDTON      MOCLDY    25  25 100 VRB2      29.66R
THUNDER BAY    PTCLDY    27  27 100 SW2       29.64R
SIOUX LOOKOUT  CLOUDY    32  30  93 CALM      29.65F
TORONTO        FOG       39  37  93 NE2       29.91S VSB 1/8
BIG TROUT LK   FLURRIES  25  23  93 W6        29.55S WCI  18
PICKLE LAKE    CLOUDY    28  23  80 NW9       29.64  WCI  20
DRYDEN         CLOUDY    30  30 100 N2        29.66R
KENORA         CLOUDY    30  30 100 N5        29.70R
$$
                *** MANITOBA***

CITY           SKY/WX    TMP DP  RH WIND       PRES   REMARKS
BRANDON        CLOUDY    32  28  86 NE7       29.77R
DAUPHIN        CLOUDY    32  27  80 W7        29.79S
ISLAND LAKE    FLURRIES  18  14  86 N7        29.66R WCI   8
PILOT MOUND      N/A     34  30  86 N6          N/A
THE PAS        FLURRIES  25  16  68 NW13      29.80R WCI  13
THOMPSON       NOT AVBL
WINNIPEG       CLOUDY    32  28  86 NE10      29.76R WCI  24
LYNN LAKE      LGT SNOW   0  -6  78 N14       29.81R WCI -19
CHURCHILL      LGT SNOW   0  -4  85 NE26G32   29.80R BLWGSNOWWCI -25
GILLAM         LGT SNOW   5   0  78 NW15      29.67R FOG     WCI -13
$$
                ***SASKATCHEWAN***

CITY           SKY/WX    TMP DP  RH WIND       PRES   REMARKS
ESTEVAN        CLOUDY    30  28  93 N16       29.79R WCI  19
KINDERSLEY     CLOUDY    30  27  86 SW7       29.84S WCI  23
LLOYDMINSTER   CLOUDY    25  23  93 NW10      29.87R WCI  15
PRINCE ALBERT  FLURRIES  27  23  86 NE8       29.85R WCI  18
REGINA         CLOUDY    28  25  86 W5        29.84R WCI  23
YORKTON        CLOUDY    28  25  86 W5        29.80R WCI  23
N. BATTLEFORD  CLOUDY    32  27  80 NW8       29.86R WCI  25
LA RONGE       FLURRIES  18  12  79 W10       29.88R WCI   6
SASKATOON      CLOUDY    32  27  80 W7        29.87R
SWIFT CURRENT  PTCLDY    27  27 100 NW5       29.82R WCI  21
$$
NOTE: THESE ARE AUTOMATED STATIONS WITH LIMITED QUALITY CONTROL
      "FAIR" INDICATES FEW OR NO CLOUDS BELOW 12,000 FEET WITH NO
      SIGNIFICANT WEATHER AND/OR OBSTRUCTIONS TO VISIBILITY.
      SKY/WX - SKY CONDITION AND SIGNIFICANT WEATHER.
      TMP - AIR TEMPERATURE.    DP   - DEWPOINT TEMPERATURE.
      RH  - RELATIVE HUMIDITY.  PRES - PRESSURE.
      HX  - HEAT INDEX.         WCI  - WIND CHILL INDEX.
$




USA.gov is the U.S. government's official web portal to all federal, state and local government web resources and services.